Temp
7 8 7 7 7 8 8 7 7 7 7 7 8 7 8 8 8 8 8 8 8 8 9 10 10 10 11 11 10 11 12 14 15 15 16 16 17 18 16 17 17 16 15 15 14 14 14
7 7 7 8 7 7 7 7 7 7 6 7 7 7 8 8 8 8 8 8 9 9 10 10 10 11 11 9 10 11 13 14 15 16 16 16 16 17 16 14 14 16 15 14 14 14 14
8 8 8 8 8 8 8 8 7 7 7 7 6 7 7 7 9 7 9 9 9 10 10 11 11 11 11 9 10 10 12 14 15 16 16 16 16 17 16 14 15 15 15 14 14 14 13
8 8 8 8 8 8 8 8 8 8 7 7 7 8 8 8 8 9 9 10 10 10 11 11 11 12 9 10 11 11 12 14 15 16 16 16 16 16 15 14 14 15 14 14 14 14 13
9 9 9 9 9 9 9 9 9 8 8 8 8 8 8 9 9 10 10 10 10 10 11 11 12 12 10 11 12 12 13 14 14 15 15 16 16 15 14 12 11 13 14 15 14 13 13
9 9 9 9 9 9 10 10 9 9 9 9 9 9 9 10 10 11 10 10 10 11 11 11 11 12 11 11 11 12 13 14 14 15 15 15 15 9 8 8 11 12 13 14 15 13 13
9 9 9 9 9 9 9 10 10 10 10 10 10 10 11 11 11 10 10 10 10 11 10 10 10 10 10 11 12 12 14 14 15 15 12 13 6 6 10 11 13 13 13 13 14 13 11
10 9 9 9 9 9 10 10 10 10 10 11 11 11 11 11 11 11 10 10 10 11 10 10 11 11 11 11 12 13 14 14 14 11 13 8 8 10 11 12 13 13 13 12 11 12 11
9 9 9 10 10 10 10 10 11 11 11 11 11 11 11 11 11 11 11 11 11 11 11 11 11 11 11 11 10 12 13 13 12 10 10 8 10 11 11 12 12 11 12 10 9 9 10
9 9 10 10 10 10 11 11 11 12 12 12 12 12 12 12 12 11 11 12 12 12 5 9 11 11 11 11 11 11 12 12 12 10 9 9 10 11 12 12 11 12 10 10 9 6 7
9 9 9 9 10 10 10 11 12 12 12 12 12 12 12 12 12 12 12 12 12 12 6 11 11 11 12 11 11 11 12 12 11 11 9 9 9 10 11 10 10 11 10 9 9 6 6
9 9 9 9 10 10 10 11 11 12 12 11 12 12 12 12 12 12 12 12 12 5 6 8 11 12 12 12 12 12 12 12 12 11 9 9 10 10 10 11 10 10 9 8 7 5 5
9 9 9 10 10 10 11 11 11 12 12 12 11 11 12 12 12 12 12 12 5 5 10 10 10 12 12 12 12 12 12 11 10 7 4 10 10 9 10 10 10 7 4 3 6 6 7
10 10 10 10 10 10 11 11 11 12 12 12 12 11 11 12 12 12 12 7 6 11 10 10 11 12 11 11 11 12 12 9 10 10 4 6 6 9 10 10 9 10 6 3 10 7 6
10 10 10 10 10 10 11 11 12 12 12 12 12 12 12 12 12 12 12 4 6 9 11 10 11 11 11 11 12 12 11 10 9 9 9 9 9 9 10 9 9 9 6 8 6 7 6
10 10 10 10 10 11 11 11 12 12 12 12 12 12 11 12 12 12 6 6 7 9 9 11 11 12 11 11 11 11 11 10 10 10 10 10 7 9 8 9 9 8 9 7 3 10 10
9 9 9 10 10 11 11 12 12 12 13 12 12 12 12 12 12 12 4 6 8 9 9 10 10 12 12 12 12 12 11 10 11 10 10 10 7 8 8 7 7 6 7 8 7 6 8
9 9 9 9 10 10 11 11 12 13 13 13 12 8 12 12 10 7 5 9 9 9 10 10 10 10 10 11 12 11 11 9 10 10 9 8 7 4 8 8 9 9 9 7 5 10 6
8 8 9 9 9 10 10 11 12 12 13 13 12 12 12 12 5 4 8 8 9 9 9 9 10 10 10 10 11 10 9 9 10 9 8 9 6 3 7 7 8 8 8 9 7 5 6
8 8 8 8 9 9 9 11 11 12 12 13 12 6 11 12 10 8 9 9 8 9 9 9 9 10 10 10 10 9 10 9 9 9 9 9 6 6 5 8 8 8 8 8 7 3 6
9 8 8 8 8 9 9 9 10 11 12 12 11 7 8 5 8 8 10 10 9 9 9 9 9 9 10 10 10 9 10 8 8 8 8 6 6 6 6 6 7 7 7 7 5 7 6
9 9 9 9 8 8 9 9 9 10 11 12 10 9 9 9 9 8 8 9 10 9 9 9 9 10 10 9 10 10 10 9 9 7 7 6 6 7 5 7 6 6 6 7 8 8 7
9 8 9 9 9 8 8 8 8 9 10 9 9 8 8 9 8 7 7 9 9 9 9 10 9 9 9 9 8 9 9 9 9 7 6 6 5 4 5 6 6 6 7 7 7 7 8
8 8 8 8 8 8 8 8 8 8 8 8 8 8 8 7 7 8 9 9 9 9 9 9 9 9 8 8 9 9 8 8 7 7 8 6 6 5 4 5 6 10 10 9 8 8 8
8 8 8 7 7 7 7 8 8 8 7 7 8 8 7 5 8 9 9 9 9 9 8 8 9 8 8 8 7 7 7 7 6 4 5 6 5 5 5 4 6 11 8 8 8 9 9
6 7 7 7 6 6 7 7 8 8 7 7 7 7 7 6 7 8 8 9 6 6 7 8 8 8 8 6 6 7 8 9 7 5 5 5 6 5 4 5 7 11 9 9 9 7 7
6 6 6 6 6 6 6 7 7 7 6 6 6 6 7 6 7 8 8 7 8 8 6 7 7 7 7 4 5 5 6 9 8 6 3 4 4 4 4 3 5 8 8 9 8 7 8
5 5 5 6 6 6 6 6 6 5 5 5 5 5 6 6 7 7 6 7 7 7 6 8 7 6 4 4 4 5 5 6 7 6 4 3 2 2 3 3 4 8 7 8 7 9 9
5 5 5 5 5 5 5 5 5 5 5 4 5 5 5 5 6 6 6 6 6 6 6 7 7 6 7 4 3 4 5 4 5 6 6 6 6 5 5 6 8 9 9 9 9 8 8
Height
1510 1503 1497 1495 1491 1489 1487 1484 1482 1480 1478 1477 1477 1478 1479 1480 1482 1485 1489 1492 1495 1497 1499 1502 1506 1505 1507 1509 1512 1512 1512 1514 1516 1518 1519 1520 1521 1523 1528 1529 1531 1533 1537 1538 1539 1539 1539
1516 1511 1507 1503 1499 1495 1493 1491 1488 1486 1483 1481 1481 1481 1483 1484 1487 1490 1494 1497 1499 1501 1502 1505 1507 1507 1508 1511 1513 1513 1514 1515 1516 1518 1520 1521 1523 1524 1528 1531 1533 1535 1536 1539 1540 1540 1539
1523 1517 1514 1510 1507 1502 1500 1498 1496 1494 1491 1489 1489 1489 1491 1489 1494 1497 1499 1500 1502 1503 1505 1507 1508 1508 1508 1514 1513 1513 1515 1516 1517 1519 1520 1522 1524 1526 1529 1532 1535 1535 1537 1539 1540 1540 1540
1529 1525 1521 1517 1514 1510 1509 1506 1504 1501 1499 1497 1496 1496 1497 1498 1499 1501 1502 1503 1504 1506 1507 1510 1510 1510 1513 1516 1515 1516 1517 1517 1518 1519 1522 1524 1526 1527 1530 1534 1536 1537 1538 1544 1539 1539 1540
1533 1531 1528 1524 1520 1517 1514 1510 1508 1507 1504 1503 1501 1500 1501 1500 1501 1503 1505 1506 1508 1509 1511 1512 1512 1512 1517 1517 1518 1518 1519 1519 1519 1520 1523 1525 1527 1531 1533 1538 1547 1542 1546 1540 1538 1538 1540
1536 1533 1532 1529 1526 1522 1519 1517 1513 1510 1508 1506 1505 1505 1504 1504 1505 1507 1508 1510 1510 1511 1513 1513 1513 1516 1519 1521 1519 1520 1520 1521 1521 1522 1525 1526 1528 1536 1541 1546 1560 1550 1547 1542 1538 1541 1539
1539 1537 1534 1532 1529 1526 1524 1521 1518 1516 1514 1512 1511 1510 1510 1510 1510 1512 1512 1511 1514 1516 1515 1517 1518 1520 1522 1522 1522 1522 1523 1523 1522 1524 1529 1530 1541 1557 1546 1542 1543 1545 1543 1545 1538 1539 1539
1542 1539 1536 1534 1532 1529 1526 1524 1522 1520 1518 1516 1515 1515 1514 1514 1513 1513 1513 1511 1512 1516 1519 1520 1522 1523 1524 1523 1524 1524 1525 1525 1525 1530 1529 1538 1550 1546 1544 1541 1544 1543 1543 1546 1544 1539 1544
1544 1541 1539 1536 1533 1530 1528 1526 1524 1522 1520 1519 1518 1517 1516 1515 1514 1514 1514 1514 1515 1515 1518 1526 1526 1527 1527 1527 1527 1527 1527 1526 1528 1534 1536 1542 1547 1545 1543 1541 1546 1547 1547 1551 1553 1545 1542
1546 1543 1540 1538 1536 1533 1529 1526 1524 1523 1522 1521 1519 1519 1518 1518 1520 1518 1517 1517 1517 1516 1532 1535 1531 1530 1529 1529 1531 1530 1529 1530 1531 1539 1540 1544 1545 1543 1544 1547 1549 1546 1549 1550 1550 1560 1564
1548 1546 1543 1540 1538 1535 1532 1528 1525 1523 1522 1521 1520 1519 1519 1519 1519 1518 1519 1518 1518 1519 1563 1537 1533 1532 1531 1532 1533 1532 1530 1530 1534 1537 1541 1549 1547 1547 1549 1549 1546 1548 1549 1549 1551 1560 1560
1551 1549 1546 1544 1540 1537 1533 1530 1527 1524 1522 1522 1521 1520 1519 1519 1519 1519 1518 1518 1519 1538 1564 1541 1535 1534 1534 1533 1533 1533 1532 1533 1536 1538 1542 1547 1548 1549 1548 1546 1547 1547 1548 1552 1557 1564 1575
1554 1552 1549 1547 1543 1539 1535 1531 1528 1525 1524 1522 1522 1521 1520 1518 1519 1518 1518 1519 1539 1555 1542 1541 1538 1533 1533 1535 1534 1534 1535 1538 1542 1555 1563 1547 1548 1547 1546 1546 1546 1550 1563 1584 1575 1571 1569
1557 1555 1552 1549 1546 1541 1537 1533 1529 1526 1525 1524 1522 1522 1520 1519 1518 1518 1519 1522 1551 1537 1539 1537 1536 1534 1536 1536 1536 1535 1537 1544 1541 1541 1561 1562 1565 1548 1547 1548 1551 1549 1560 1583 1566 1576 1570
1560 1558 1555 1551 1548 1544 1540 1535 1531 1527 1525 1524 1524 1523 1520 1519 1519 1520 1521 1546 1548 1538 1535 1537 1537 1536 1538 1536 1536 1536 1537 1542 1542 1542 1552 1551 1551 1548 1548 1548 1550 1551 1562 1555 1569 1563 1572
1562 1559 1557 1553 1549 1545 1542 1538 1533 1529 1525 1524 1524 1523 1522 1521 1521 1521 1525 1542 1541 1538 1537 1536 1538 1535 1539 1538 1539 1539 1541 1543 1544 1544 1544 1545 1558 1548 1549 1549 1550 1552 1554 1564 1574 1558 1556
1563 1561 1558 1555 1552 1548 1544 1539 1535 1530 1526 1525 1524 1525 1525 1523 1523 1523 1540 1541 1539 1538 1538 1538 1539 1536 1536 1537 1538 1538 1542 1545 1543 1544 1544 1544 1552 1555 1551 1553 1553 1558 1557 1554 1558 1562 1560
1564 1562 1560 1557 1553 1550 1545 1541 1536 1532 1528 1526 1526 1527 1527 1525 1526 1530 1538 1536 1537 1538 1538 1538 1538 1538 1539 1538 1538 1539 1542 1544 1543 1544 1545 1547 1552 1565 1552 1547 1546 1546 1546 1550 1567 1549 1557
1564 1562 1560 1557 1555 1551 1547 1543 1538 1534 1529 1526 1528 1529 1529 1526 1538 1540 1537 1537 1537 1538 1538 1538 1539 1539 1538 1540 1542 1541 1542 1544 1544 1545 1547 1547 1555 1576 1556 1553 1548 1547 1545 1544 1549 1556 1554
1564 1562 1560 1557 1555 1552 1549 1545 1541 1536 1533 1529 1529 1533 1531 1531 1533 1535 1536 1537 1539 1539 1539 1539 1539 1539 1540 1541 1541 1543 1543 1545 1545 1545 1546 1546 1551 1554 1562 1546 1545 1547 1542 1541 1546 1567 1550
1563 1561 1559 1557 1555 1551 1549 1547 1543 1539 1535 1533 1531 1538 1539 1541 1537 1537 1536 1535 1538 1539 1539 1539 1540 1539 1540 1541 1541 1542 1541 1544 1545 1545 1546 1548 1553 1548 1546 1543 1542 1539 1536 1536 1543 1534 1539
1561 1561 1560 1558 1556 1553 1550 1548 1546 1542 1538 1536 1536 1537 1538 1538 1538 1538 1539 1538 1536 1537 1538 1539 1539 1537 1537 1539 1539 1539 1539 1541 1541 1546 1546 1546 1551 1546 1546 1536 1536 1536 1527 1527 1526 1524 1524
1558 1558 1558 1558 1556 1553 1551 1548 1546 1545 1542 1540 1540 1539 1537 1537 1537 1540 1543 1541 1540 1539 1538 1537 1537 1537 1537 1537 1537 1537 1538 1538 1540 1542 1545 1548 1550 1553 1548 1538 1536 1530 1513 1513 1514 1511 1510
1555 1555 1556 1556 1555 1554 1551 1549 1548 1547 1545 1544 1543 1541 1539 1539 1535 1538 1540 1541 1541 1540 1541 1539 1538 1538 1538 1537 1536 1534 1534 1535 1536 1537 1539 1543 1546 1550 1551 1543 1542 1504 1500 1501 1504 1501 1501
1552 1552 1553 1553 1553 1553 1551 1550 1548 1546 1546 1545 1544 1544 1542 1540 1538 1536 1535 1537 1538 1538 1539 1539 1539 1539 1538 1538 1537 1535 1535 1534 1534 1536 1536 1536 1542 1547 1547 1548 1526 1495 1499 1500 1501 1495 1492
1548 1548 1548 1549 1550 1550 1550 1549 1547 1546 1545 1544 1545 1544 1544 1543 1539 1537 1536 1536 1537 1537 1537 1536 1537 1537 1538 1538 1540 1539 1534 1526 1532 1538 1537 1537 1536 1543 1548 1542 1529 1496 1497 1497 1498 1504 1494
1544 1544 1544 1544 1544 1545 1546 1547 1546 1545 1544 1543 1542 1543 1543 1542 1539 1538 1536 1536 1535 1535 1536 1535 1535 1536 1537 1540 1543 1544 1536 1524 1528 1531 1541 1541 1543 1542 1543 1543 1522 1496 1496 1498 1505 1502 1495
1540 1539 1540 1540 1539 1539 1540 1541 1542 1542 1543 1545 1543 1541 1540 1540 1536 1536 1536 1535 1535 1534 1534 1535 1536 1535 1537 1540 1540 1535 1533 1524 1524 1522 1528 1531 1539 1541 1540 1539 1528 1494 1498 1501 1498 1495 1495
1533 1534 1534 1536 1535 1534 1534 1535 1536 1538 1538 1538 1540 1540 1540 1539 1535 1534 1532 1532 1533 1534 1535 1533 1532 1531 1532 1535 1534 1531 1528 1525 1522 1523 1514 1521 1512 1518 1514 1504 1492 1492 1491 1492 1492 1492 1491
Wind_Speed
38 38 27 30 27 22 23 22 20 19 15 14 15 17 17 18 20 21 15 16 16 19 21 20 14 6 6 7 6 6 7 9 10 11 13 10 5 3 4 5 3 4 3 5 3 2 2
36 42 42 41 36 32 28 27 25 27 27 18 16 20 18 16 21 17 17 17 19 20 20 16 6 4 3 6 9 11 6 8 10 12 11 6 7 8 7 5 5 3 6 4 1 0 3
32 34 38 36 35 34 32 30 28 27 31 26 27 27 24 23 22 20 19 17 16 17 15 8 8 10 13 9 10 12 10 8 9 10 11 6 7 3 4 4 4 4 2 0 2 1 1
28 30 29 31 31 32 30 28 28 27 24 22 19 24 21 24 24 20 17 17 15 11 11 11 10 9 8 10 10 10 11 13 11 11 9 9 7 9 5 7 2 2 3 2 2 2 2
21 21 21 23 27 29 28 25 26 23 21 19 17 13 14 18 19 19 16 14 12 11 10 4 7 4 5 7 8 10 8 13 15 14 12 9 6 5 4 3 4 4 1 3 2 2 2
18 18 19 19 17 16 23 19 21 21 21 19 17 16 15 17 20 19 19 22 20 10 8 8 9 5 5 5 8 9 9 10 9 11 9 5 6 4 5 5 3 2 2 3 2 1 2
17 16 16 16 15 14 14 17 19 19 18 19 17 18 18 21 16 10 4 2 3 7 22 10 9 13 11 13 9 8 10 11 8 6 4 5 7 2 2 2 0 1 0 3 1 2 6
15 15 15 15 13 12 12 13 15 16 15 14 11 8 3 0 3 4 1 2 8 11 12 14 15 14 10 5 4 7 5 3 3 4 3 6 3 1 3 0 0 1 3 4 5 2 4
17 17 16 14 13 12 11 11 12 12 13 13 11 10 10 7 6 8 10 15 12 7 7 8 10 7 6 8 6 7 4 5 7 6 4 6 3 2 1 5 4 2 1 1 3 7 4
20 20 19 18 16 15 13 11 10 9 9 9 9 6 4 6 6 7 8 8 4 2 5 8 5 5 5 3 5 9 5 3 6 4 4 5 2 3 2 2 1 1 2 2 4 5 3
22 21 21 21 22 21 18 14 11 8 7 7 7 5 5 2 4 2 3 2 1 2 5 4 4 3 6 4 3 7 6 6 4 3 5 3 3 2 4 2 1 2 0 1 1 2 4
23 24 24 24 25 24 22 19 13 9 7 6 7 5 2 2 2 2 1 2 2 6 2 4 2 0 1 2 2 3 4 5 4 4 5 2 1 1 1 1 1 1 4 3 2 3 3
21 23 23 24 26 27 27 23 19 11 6 6 6 9 4 1 2 2 1 1 5 6 3 3 1 2 3 1 2 1 3 3 2 4 2 2 1 1 1 1 3 7 5 3 5 4 4
19 21 22 24 25 27 29 28 24 14 7 5 6 8 7 3 2 3 3 5 7 2 2 2 1 1 2 3 2 0 2 2 4 3 3 4 6 1 0 2 2 2 5 4 4 1 5
17 19 20 22 24 26 28 28 27 21 9 5 4 11 15 6 3 5 2 5 6 1 1 2 1 1 1 1 1 2 3 2 3 5 4 2 3 1 3 3 2 1 0 3 3 3 3
14 16 18 20 23 26 28 29 28 25 12 6 2 3 18 6 6 3 5 4 3 2 4 1 1 1 2 3 1 2 3 2 2 2 2 1 1 1 0 3 2 1 0 1 2 1 4
12 14 16 19 21 24 25 28 29 26 17 7 4 3 15 5 4 5 4 2 3 1 3 3 3 2 3 2 1 1 2 2 2 1 3 2 3 3 3 4 6 1 2 2 2 4 4
10 12 14 16 18 20 24 27 28 27 23 9 5 4 15 3 4 5 2 2 1 1 2 2 2 3 3 2 2 2 2 2 4 2 2 0 3 3 5 1 1 2 3 5 4 3 2
10 12 13 15 17 19 21 23 26 26 24 13 4 4 11 7 3 2 1 2 3 1 2 4 2 4 2 2 2 3 3 1 1 3 2 1 1 3 6 4 3 2 4 4 3 3 5
8 10 12 14 15 17 19 21 22 22 21 11 4 3 6 9 5 4 2 2 2 1 1 2 2 1 1 1 2 1 1 1 1 2 2 2 1 6 6 4 3 4 5 5 5 3 3
9 9 11 13 15 17 19 20 18 18 16 6 6 3 4 3 6 5 1 0 3 1 0 0 1 2 0 2 3 2 2 2 1 3 1 3 3 3 5 8 6 8 10 9 10 11 8
13 11 10 11 13 16 18 19 19 18 14 14 4 4 2 2 3 5 5 3 1 2 4 2 3 3 3 3 2 2 1 3 4 1 3 1 3 3 5 7 6 7 12 13 15 15 15
15 14 11 11 12 13 15 17 18 18 17 10 8 5 2 1 4 3 3 3 3 3 1 1 2 1 2 3 1 4 4 5 4 6 6 5 2 2 5 6 8 8 7 11 5 6 12
14 13 10 9 11 12 11 13 16 17 15 13 11 5 3 2 3 2 1 3 3 4 3 1 1 1 1 4 10 10 11 9 9 7 8 4 4 3 4 5 2 5 2 3 8 7 10
14 13 11 9 9 11 11 10 11 12 13 11 8 6 3 2 3 4 3 2 4 5 2 3 2 2 6 7 3 3 1 2 1 3 3 4 4 2 2 2 8 7 2 4 5 5 5
15 14 12 11 10 12 13 12 10 9 10 10 8 6 4 4 2 2 1 1 1 1 1 2 3 5 2 1 2 2 3 4 2 1 4 1 2 3 2 3 5 3 2 4 2 5 3
16 15 15 14 14 14 15 16 14 11 10 10 8 6 4 4 3 3 1 1 2 2 2 2 2 1 3 2 2 4 4 1 3 5 4 3 1 8 5 4 8 7 7 4 2 4 3
21 16 17 17 17 17 17 18 16 12 13 12 12 10 6 5 13 11 9 2 4 3 2 1 2 2 2 2 3 4 4 4 1 4 6 7 7 5 4 5 9 7 5 3 4 4 9
25 24 21 22 21 20 19 19 19 15 15 14 15 13 10 9 9 15 18 19 16 14 6 4 3 3 6 2 2 2 2 1 3 3 3 2 6 5 10 6 2 18 2 4 8 12 8
Wind_Direction
52 49 49 47 60 64 61 58 64 66 78 86 87 84 84 103 126 115 115 119 138 138 133 130 133 123 101 89 65 81 121 139 147 149 142 127 104 84 99 102 57 81 96 53 79 62 360
54 57 59 56 55 62 61 60 75 63 72 83 91 92 101 113 106 106 117 132 132 133 128 125 92 44 108 81 80 69 103 133 149 149 142 115 98 89 94 72 76 63 108 125 68 317 322
60 61 60 55 56 61 62 59 61 65 70 83 102 95 97 104 148 128 129 124 128 126 121 106 88 69 100 84 89 90 77 126 132 142 141 110 124 110 93 89 98 117 75 282 214 237 285
61 63 59 54 55 62 56 51 56 60 63 66 81 84 93 105 110 114 116 121 122 116 115 116 79 80 79 87 90 115 99 102 113 121 123 115 115 96 63 111 78 101 66 22 223 341 292
53 53 59 58 63 62 47 44 48 51 57 59 60 73 70 82 91 99 103 102 97 98 107 104 65 64 76 72 89 103 108 105 99 103 104 106 87 76 80 69 22 354 195 197 300 93 322
44 43 46 51 61 58 64 45 38 44 48 52 58 62 73 89 97 98 100 94 82 82 98 88 78 68 62 60 75 88 101 111 103 104 89 70 66 61 30 62 194 257 26 332 335 26 287
37 37 39 41 44 43 40 41 43 46 50 55 63 77 90 101 94 85 135 322 82 92 60 65 78 81 98 80 72 85 105 100 88 72 80 41 70 101 154 54 162 181 3 296 289 17 357
31 32 31 33 32 32 30 25 32 40 43 44 57 69 86 151 301 337 128 111 121 121 67 64 71 82 65 58 71 80 82 67 62 89 70 30 91 231 298 321 279 356 9 325 286 33 346
42 33 31 27 23 21 19 17 19 27 37 41 48 66 70 70 73 95 121 113 107 96 82 46 47 50 47 52 47 21 53 73 69 51 27 117 167 223 300 40 22 53 139 28 243 331 254
42 45 38 32 29 23 19 15 15 17 24 37 52 66 81 87 85 90 102 94 89 86 80 331 3 10 25 61 45 33 61 75 42 113 82 79 313 2 354 138 261 180 45 24 357 32 272
41 41 43 39 32 26 22 18 20 22 26 32 47 66 71 94 135 128 99 58 38 137 67 305 352 23 55 63 127 27 49 58 89 102 83 231 168 200 225 162 39 145 341 54 73 7 35
45 41 39 38 36 32 26 24 21 26 40 47 45 46 125 150 110 124 50 30 77 43 272 359 302 222 98 78 60 85 52 71 109 77 49 134 175 103 185 151 129 320 53 38 48 74 24
44 42 40 39 36 32 31 27 21 17 43 59 57 40 45 130 167 151 104 56 35 87 254 313 47 328 89 19 64 64 101 46 107 74 348 60 127 159 60 30 9 63 52 347 359 10 215
37 39 38 34 33 31 29 27 25 25 31 40 62 42 31 59 120 143 129 52 71 217 159 255 264 296 88 7 15 123 137 94 33 83 103 120 329 193 130 73 170 48 129 144 228 244 266
30 28 30 29 28 27 26 27 24 22 23 27 74 51 34 39 105 135 121 53 179 174 323 169 285 180 32 3 62 13 63 88 49 38 134 149 281 31 44 36 85 24 75 144 117 310 38
22 23 22 23 22 20 20 20 22 21 20 26 42 31 20 55 102 76 74 143 139 338 348 312 283 136 155 173 97 161 157 320 124 59 43 193 38 180 127 52 356 154 302 76 1 160 277
15 16 15 15 16 16 17 16 17 18 22 36 46 50 11 63 69 58 107 152 117 34 30 48 23 50 75 128 110 142 118 331 74 191 3 55 103 301 74 196 179 115 263 221 153 155 186
9 10 10 11 13 14 13 13 13 15 20 33 43 51 8 17 44 50 75 33 108 125 10 0 21 49 62 56 49 81 93 75 48 64 58 320 145 226 241 126 93 190 219 162 125 238 227
357 3 7 7 10 13 13 14 10 11 15 24 50 27 15 22 81 30 176 77 76 66 52 26 74 29 6 59 92 57 80 15 84 47 131 95 320 3 336 350 345 223 233 204 112 79 223
337 347 357 1 6 9 11 11 10 11 12 24 52 25 28 53 47 119 115 122 87 35 91 73 124 33 21 114 57 111 146 143 117 74 118 65 216 182 199 210 158 234 227 214 153 144 210
316 326 338 348 356 1 5 12 16 14 16 28 53 75 17 347 357 7 90 349 135 169 139 155 215 209 122 154 171 196 156 159 180 183 154 123 233 238 256 254 226 231 233 216 202 205 192
311 309 315 328 343 352 357 6 13 19 25 39 46 55 23 317 333 352 4 356 73 167 153 197 162 176 182 179 140 163 152 199 215 166 169 172 271 332 285 267 252 262 243 229 234 237 247
306 311 309 322 334 346 353 360 10 18 26 38 37 16 39 14 358 60 325 339 6 356 350 156 195 74 235 238 255 258 243 255 184 165 194 159 173 36 266 329 325 291 246 209 196 209 217
294 299 305 317 333 334 344 356 2 7 16 18 13 12 352 287 108 141 61 354 330 341 310 288 280 294 251 298 298 273 258 266 261 233 194 155 158 160 271 345 299 247 203 205 217 235 218
282 282 289 301 313 318 323 333 348 356 357 358 1 3 346 292 329 116 134 179 308 284 241 253 300 274 308 314 351 333 313 314 168 75 109 171 143 232 235 244 293 290 215 184 182 287 200
281 272 269 272 286 296 299 297 308 318 334 343 339 349 335 317 265 314 281 259 194 300 355 226 266 269 277 30 18 275 250 245 249 341 15 89 111 165 156 205 245 267 157 124 79 280 92
270 271 264 260 267 279 286 289 295 303 312 320 315 309 322 294 283 290 254 245 249 231 211 185 250 168 185 110 181 213 251 230 227 195 165 133 175 219 233 259 278 262 168 118 136 260 145
270 269 266 260 262 268 274 278 285 294 305 303 299 291 281 261 278 273 283 266 264 239 165 154 6 217 90 180 184 239 219 241 281 181 180 172 164 195 178 219 263 159 105 185 200 169 241
258 264 269 267 264 266 272 277 276 281 281 282 291 288 286 266 266 284 277 273 261 257 256 224 252 180 220 186 254 299 275 250 193 248 157 240 199 192 195 217 214 183 146 288 253 310 315